Time,TemperatureF,DewpointF,PressureIn,WindDirection,WindDirectionDegrees,WindSpeedMPH,WindSpeedGustMPH,Humidity,HourlyPrecipIn,Conditions,Clouds,dailyrainin,SoftwareType,DateUTC
2013-10-20 00:01:00,50.3,38.2,29.90,SW,225,2.0,6.0,63,0.00,,---,0.00,VWS V14.01,2013-10-20 04:01:00,
2013-10-20 00:02:00,50.2,38.1,29.90,WNW,300,1.0,2.0,63,0.00,,---,0.00,VWS V14.01,2013-10-20 04:02:00,
2013-10-20 00:07:00,49.9,37.8,29.90,West,268,2.0,4.0,63,0.00,,---,0.00,VWS V14.01,2013-10-20 04:07:00,
2013-10-20 00:12:00,49.6,37.1,29.91,ESE,104,2.0,5.0,62,0.00,,---,0.00,VWS V14.01,2013-10-20 04:12:00,
2013-10-20 00:17:00,49.3,36.8,29.91,SW,228,1.0,5.0,62,0.00,,---,0.00,VWS V14.01,2013-10-20 04:17:00,
2013-10-20 00:22:00,49.0,36.6,29.90,SW,231,1.0,5.0,62,0.00,,---,0.00,VWS V14.01,2013-10-20 04:22:00,
2013-10-20 00:27:00,48.7,36.7,29.90,SW,228,2.0,6.0,63,0.00,,---,0.00,VWS V14.01,2013-10-20 04:27:00,
2013-10-20 00:32:00,48.4,36.4,29.91,West,273,1.0,3.0,63,0.00,,---,0.00,VWS V14.01,2013-10-20 04:32:00,
2013-10-20 00:37:00,48.1,36.1,29.91,WSW,245,0.0,3.0,63,0.00,,---,0.00,VWS V14.01,2013-10-20 04:37:00,
2013-10-20 00:42:00,47.9,35.9,29.91,NW,316,1.0,4.0,63,0.00,,---,0.00,VWS V14.01,2013-10-20 04:42:00,
2013-10-20 00:47:00,47.7,35.7,29.91,ESE,115,0.0,4.0,63,0.00,,---,0.00,VWS V14.01,2013-10-20 04:47:00,
2013-10-20 00:52:00,47.7,35.7,29.91,ESE,112,2.0,4.0,63,0.00,,---,0.00,VWS V14.01,2013-10-20 04:52:00,
2013-10-20 00:57:00,47.7,35.7,29.91,WSW,255,0.0,5.0,63,0.00,,---,0.00,VWS V14.01,2013-10-20 04:57:00,
2013-10-20 01:02:00,47.6,35.6,29.91,NW,304,1.0,1.0,63,0.00,,---,0.00,VWS V14.01,2013-10-20 05:02:00,
2013-10-20 01:07:00,47.6,35.6,29.91,SW,229,0.0,3.0,63,0.00,,---,0.00,VWS V14.01,2013-10-20 05:07:00,
2013-10-20 01:12:00,47.5,35.5,29.92,SW,233,1.0,3.0,63,0.00,,---,0.00,VWS V14.01,2013-10-20 05:12:00,
2013-10-20 01:17:00,47.1,35.2,29.92,NW,326,0.0,3.0,63,0.00,,---,0.00,VWS V14.01,2013-10-20 05:17:00,
2013-10-20 01:22:00,46.9,35.0,29.92,SE,130,1.0,3.0,63,0.00,,---,0.00,VWS V14.01,2013-10-20 05:22:00,
2013-10-20 01:27:00,46.8,34.9,29.91,SE,146,0.0,3.0,63,0.00,,---,0.00,VWS V14.01,2013-10-20 05:27:00,
2013-10-20 01:32:00,46.5,35.0,29.92,SE,136,1.0,1.0,64,0.00,,---,0.00,VWS V14.01,2013-10-20 05:32:00,
2013-10-20 01:37:00,46.4,34.9,29.92,NNW,332,0.0,2.0,64,0.00,,---,0.00,VWS V14.01,2013-10-20 05:37:00,
2013-10-20 01:42:00,46.3,34.4,29.92,SSE,167,1.0,3.0,63,0.00,,---,0.00,VWS V14.01,2013-10-20 05:42:00,
2013-10-20 01:47:00,46.3,34.8,29.92,West,278,0.0,3.0,64,0.00,,---,0.00,VWS V14.01,2013-10-20 05:47:00,
2013-10-20 01:52:00,46.1,34.6,29.92,NW,309,0.0,3.0,64,0.00,,---,0.00,VWS V14.01,2013-10-20 05:52:00,
2013-10-20 01:57:00,45.9,34.4,29.92,ENE,68,0.0,3.0,64,0.00,,---,0.00,VWS V14.01,2013-10-20 05:57:00,
2013-10-20 02:02:00,45.9,34.4,29.92,NE,50,0.0,1.0,64,0.00,,---,0.00,VWS V14.01,2013-10-20 06:02:00,
2013-10-20 02:07:00,45.9,34.4,29.92,NE,51,0.0,1.0,64,0.00,,---,0.00,VWS V14.01,2013-10-20 06:07:00,
2013-10-20 02:12:00,45.9,34.4,29.92,NE,50,0.0,1.0,64,0.00,,---,0.00,VWS V14.01,2013-10-20 06:12:00,
2013-10-20 02:17:00,45.7,34.2,29.92,NE,52,0.0,1.0,64,0.00,,---,0.00,VWS V14.01,2013-10-20 06:17:00,
2013-10-20 02:22:00,45.5,34.0,29.92,NE,52,0.0,1.0,64,0.00,,---,0.00,VWS V14.01,2013-10-20 06:22:00,
2013-10-20 02:27:00,45.2,33.8,29.92,NE,50,0.0,4.0,64,0.00,,---,0.00,VWS V14.01,2013-10-20 06:27:00,
2013-10-20 02:32:00,44.9,33.1,29.93,East,84,1.0,2.0,63,0.00,,---,0.00,VWS V14.01,2013-10-20 06:32:00,
2013-10-20 02:37:00,44.6,33.2,29.93,ENE,74,2.0,5.0,64,0.00,,---,0.00,VWS V14.01,2013-10-20 06:37:00,
2013-10-20 02:42:00,44.5,33.1,29.93,West,269,2.0,5.0,64,0.00,,---,0.00,VWS V14.01,2013-10-20 06:42:00,
2013-10-20 02:47:00,44.5,33.1,29.93,East,82,0.0,5.0,64,0.00,,---,0.00,VWS V14.01,2013-10-20 06:47:00,
2013-10-20 02:52:00,44.4,33.0,29.93,WNW,284,0.0,5.0,64,0.00,,---,0.00,VWS V14.01,2013-10-20 06:52:00,
2013-10-20 02:57:00,44.1,32.7,29.93,ENE,70,0.0,5.0,64,0.00,,---,0.00,VWS V14.01,2013-10-20 06:57:00,
2013-10-20 03:02:00,44.0,32.6,29.93,WNW,285,0.0,2.0,64,0.00,,---,0.00,VWS V14.01,2013-10-20 07:02:00,
2013-10-20 03:07:00,43.9,32.5,29.94,WNW,284,0.0,2.0,64,0.00,,---,0.00,VWS V14.01,2013-10-20 07:07:00,
2013-10-20 03:12:00,43.6,32.2,29.94,East,79,3.0,3.0,64,0.00,,---,0.00,VWS V14.01,2013-10-20 07:12:00,
2013-10-20 03:17:00,43.2,32.2,29.94,SSW,205,0.0,3.0,65,0.00,,---,0.00,VWS V14.01,2013-10-20 07:17:00,
2013-10-20 03:22:00,42.7,31.8,29.94,SSW,205,0.0,3.0,65,0.00,,---,0.00,VWS V14.01,2013-10-20 07:22:00,
2013-10-20 03:27:00,42.4,31.5,29.94,SSW,206,0.0,3.0,65,0.00,,---,0.00,VWS V14.01,2013-10-20 07:27:00,
2013-10-20 03:32:00,42.0,31.1,29.94,ESE,114,0.0,0.0,65,0.00,,---,0.00,VWS V14.01,2013-10-20 07:32:00,
2013-10-20 03:37:00,41.9,30.6,29.94,ESE,114,0.0,0.0,64,0.00,,---,0.00,VWS V14.01,2013-10-20 07:37:00,
2013-10-20 03:42:00,41.6,30.3,29.94,East,83,0.0,1.0,64,0.00,,---,0.00,VWS V14.01,2013-10-20 07:42:00,
2013-10-20 03:47:00,41.2,29.6,29.95,East,83,0.0,1.0,63,0.00,,---,0.00,VWS V14.01,2013-10-20 07:47:00,
2013-10-20 03:52:00,40.8,29.2,29.95,East,83,0.0,1.0,63,0.00,,---,0.00,VWS V14.01,2013-10-20 07:52:00,
2013-10-20 03:57:00,40.3,28.3,29.95,East,83,0.0,1.0,62,0.00,,---,0.00,VWS V14.01,2013-10-20 07:57:00,
2013-10-20 04:02:00,39.8,27.1,29.95,East,83,0.0,0.0,60,0.00,,---,0.00,VWS V14.01,2013-10-20 08:02:00,
2013-10-20 04:07:00,39.4,25.9,29.95,East,83,0.0,0.0,58,0.00,,---,0.00,VWS V14.01,2013-10-20 08:07:00,
2013-10-20 04:12:00,39.1,25.2,29.95,East,83,0.0,0.0,57,0.00,,---,0.00,VWS V14.01,2013-10-20 08:12:00,
2013-10-20 04:17:00,38.8,24.0,29.95,East,84,0.0,0.0,55,0.00,,---,0.00,VWS V14.01,2013-10-20 08:17:00,
2013-10-20 04:22:00,38.4,23.2,29.96,East,84,0.0,0.0,54,0.00,,---,0.00,VWS V14.01,2013-10-20 08:22:00,
2013-10-20 04:27:00,38.0,22.0,29.96,East,83,0.0,0.0,52,0.00,,---,0.00,VWS V14.01,2013-10-20 08:27:00,
2013-10-20 04:32:00,37.7,21.2,29.96,East,83,0.0,0.0,51,0.00,,---,0.00,VWS V14.01,2013-10-20 08:32:00,
2013-10-20 04:37:00,37.5,19.1,29.96,ENE,70,0.0,1.0,47,0.00,,---,0.00,VWS V14.01,2013-10-20 08:37:00,
2013-10-20 04:42:00,37.3,17.4,29.96,SE,133,0.0,1.0,44,0.00,,---,0.00,VWS V14.01,2013-10-20 08:42:00,
2013-10-20 04:47:00,37.2,16.2,29.96,SE,132,0.0,1.0,42,0.00,,---,0.00,VWS V14.01,2013-10-20 08:47:00,
2013-10-20 04:52:00,37.0,15.5,29.96,SE,132,0.0,1.0,41,0.00,,---,0.00,VWS V14.01,2013-10-20 08:52:00,
2013-10-20 04:57:00,36.8,14.8,29.97,SE,133,0.0,1.0,40,0.00,,---,0.00,VWS V14.01,2013-10-20 08:57:00,
2013-10-20 05:02:00,36.6,12.8,29.97,SE,132,0.0,0.0,37,0.00,,---,0.00,VWS V14.01,2013-10-20 09:02:00,
2013-10-20 05:07:00,36.4,10.7,29.97,SE,132,0.0,0.0,34,0.00,,---,0.00,VWS V14.01,2013-10-20 09:07:00,
2013-10-20 05:12:00,36.3,10.6,29.97,SE,133,0.0,0.0,34,0.00,,---,0.00,VWS V14.01,2013-10-20 09:12:00,
2013-10-20 05:17:00,36.2,9.9,29.97,SE,132,0.0,0.0,33,0.00,,---,0.00,VWS V14.01,2013-10-20 09:17:00,
2013-10-20 05:22:00,35.9,9.6,29.97,SE,133,0.0,0.0,33,0.00,,---,0.00,VWS V14.01,2013-10-20 09:22:00,
2013-10-20 05:27:00,35.6,8.7,29.97,SE,132,0.0,0.0,32,0.00,,---,0.00,VWS V14.01,2013-10-20 09:27:00,
2013-10-20 05:32:00,35.4,8.5,29.98,SE,132,0.0,0.0,32,0.00,,---,0.00,VWS V14.01,2013-10-20 09:32:00,
2013-10-20 05:37:00,35.1,8.9,29.98,SE,132,0.0,0.0,33,0.00,,---,0.00,VWS V14.01,2013-10-20 09:37:00,
2013-10-20 05:42:00,35.1,8.9,29.98,SE,132,0.0,0.0,33,0.00,,---,0.00,VWS V14.01,2013-10-20 09:42:00,
2013-10-20 05:47:00,35.1,8.9,29.98,SE,132,0.0,0.0,33,0.00,,---,0.00,VWS V14.01,2013-10-20 09:47:00,
2013-10-20 05:52:00,35.1,8.9,29.98,SE,132,0.0,0.0,33,0.00,,---,0.00,VWS V14.01,2013-10-20 09:52:00,
2013-10-20 05:57:00,35.1,8.9,29.98,SE,132,0.0,0.0,33,0.00,,---,0.00,VWS V14.01,2013-10-20 09:57:00,
2013-10-20 06:02:00,35.1,8.9,29.98,SE,132,0.0,0.0,33,0.00,,---,0.00,VWS V14.01,2013-10-20 10:02:00,
2013-10-20 06:07:00,35.1,8.9,29.98,SE,132,0.0,0.0,33,0.00,,---,0.00,VWS V14.01,2013-10-20 10:07:00,
2013-10-20 06:12:00,35.1,8.9,29.98,SE,132,0.0,0.0,33,0.00,,---,0.00,VWS V14.01,2013-10-20 10:12:00,
2013-10-20 06:17:00,35.1,8.9,29.98,SE,132,0.0,0.0,33,0.00,,---,0.00,VWS V14.01,2013-10-20 10:17:00,
2013-10-20 06:22:00,35.1,8.9,29.98,SE,132,0.0,0.0,33,0.00,,---,0.00,VWS V14.01,2013-10-20 10:22:00,
2013-10-20 06:27:00,35.1,8.9,29.98,SE,132,0.0,0.0,33,0.00,,---,0.00,VWS V14.01,2013-10-20 10:27:00,
2013-10-20 06:32:00,35.1,8.9,29.98,SE,132,0.0,0.0,33,0.00,,---,0.00,VWS V14.01,2013-10-20 10:32:00,
2013-10-20 06:37:00,35.1,8.9,29.98,SE,132,0.0,0.0,33,0.00,,---,0.00,VWS V14.01,2013-10-20 10:37:00,
2013-10-20 06:42:00,35.1,8.9,29.98,SE,132,0.0,0.0,33,0.00,,---,0.00,VWS V14.01,2013-10-20 10:42:00,
2013-10-20 06:47:00,35.1,8.9,29.98,SE,132,0.0,0.0,33,0.00,,---,0.00,VWS V14.01,2013-10-20 10:47:00,
2013-10-20 06:52:00,35.1,8.9,29.99,SE,132,0.0,0.0,33,0.00,,---,0.00,VWS V14.01,2013-10-20 10:52:00,
2013-10-20 06:57:00,35.1,8.9,29.99,SE,132,0.0,0.0,33,0.00,,---,0.00,VWS V14.01,2013-10-20 10:57:00,
2013-10-20 07:02:00,35.1,8.9,29.99,SE,132,0.0,0.0,33,0.00,,---,0.00,VWS V14.01,2013-10-20 11:02:00,
2013-10-20 07:07:00,35.1,8.9,29.99,SE,132,0.0,0.0,33,0.00,,---,0.00,VWS V14.01,2013-10-20 11:07:00,
2013-10-20 07:12:00,35.1,8.9,29.99,SE,132,0.0,0.0,33,0.00,,---,0.00,VWS V14.01,2013-10-20 11:12:00,
2013-10-20 07:17:00,35.1,8.9,29.99,SE,132,0.0,0.0,33,0.00,,---,0.00,VWS V14.01,2013-10-20 11:17:00,
2013-10-20 07:22:00,35.1,8.9,29.99,SE,132,0.0,0.0,33,0.00,,---,0.00,VWS V14.01,2013-10-20 11:22:00,
2013-10-20 07:27:00,35.1,8.9,29.99,SE,132,0.0,0.0,33,0.00,,---,0.00,VWS V14.01,2013-10-20 11:27:00,
2013-10-20 07:32:00,35.1,8.9,30.00,SE,132,0.0,0.0,33,0.00,,---,0.00,VWS V14.01,2013-10-20 11:32:00,
2013-10-20 07:37:00,35.1,8.9,30.00,SE,132,0.0,0.0,33,0.00,,---,0.00,VWS V14.01,2013-10-20 11:37:00,
2013-10-20 07:42:00,35.1,8.9,30.00,SE,132,0.0,0.0,33,0.00,,---,0.00,VWS V14.01,2013-10-20 11:42:00,
2013-10-20 07:47:00,35.1,8.9,30.00,SE,132,0.0,0.0,33,0.00,,---,0.00,VWS V14.01,2013-10-20 11:47:00,
2013-10-20 07:52:00,35.1,8.9,30.00,SE,132,0.0,0.0,33,0.00,,---,0.00,VWS V14.01,2013-10-20 11:52:00,
2013-10-20 07:57:00,35.1,8.9,30.00,SE,132,0.0,0.0,33,0.00,,---,0.00,VWS V14.01,2013-10-20 11:57:00,
2013-10-20 08:02:00,35.1,8.9,30.01,SE,132,0.0,0.0,33,0.00,,---,0.00,VWS V14.01,2013-10-20 12:02:00,
2013-10-20 08:07:00,35.1,8.9,30.01,SE,132,0.0,0.0,33,0.00,,---,0.00,VWS V14.01,2013-10-20 12:07:00,
2013-10-20 08:12:00,33.2,0.0,30.01,West,278,0.0,0.0,0,0.00,,---,0.00,VWS V14.01,2013-10-20 12:12:00,
2013-10-20 08:17:00,33.3,0.0,30.01,West,278,0.0,0.0,0,0.00,,---,0.00,VWS V14.01,2013-10-20 12:17:00,
2013-10-20 08:22:00,33.5,0.0,30.01,West,278,0.0,0.0,0,0.00,,---,0.00,VWS V14.01,2013-10-20 12:22:00,
2013-10-20 08:27:00,33.8,0.0,30.02,West,277,0.0,0.0,0,0.00,,---,0.00,VWS V14.01,2013-10-20 12:27:00,
2013-10-20 08:32:00,34.8,0.0,30.02,West,277,0.0,0.0,0,0.00,,---,0.00,VWS V14.01,2013-10-20 12:32:00,
2013-10-20 08:37:00,36.3,0.0,30.02,West,277,0.0,0.0,0,0.00,,---,0.00,VWS V14.01,2013-10-20 12:37:00,
2013-10-20 08:42:00,37.8,0.0,30.02,West,276,0.0,0.0,0,0.00,,---,0.00,VWS V14.01,2013-10-20 12:42:00,
2013-10-20 08:47:00,38.9,0.0,30.02,SE,138,0.0,0.0,0,0.00,,---,0.00,VWS V14.01,2013-10-20 12:47:00,
2013-10-20 08:52:00,39.6,0.0,30.03,SE,141,0.0,0.0,0,0.00,,---,0.00,VWS V14.01,2013-10-20 12:52:00,
2013-10-20 08:57:00,40.1,0.0,30.03,SE,138,0.0,0.0,0,0.00,,---,0.00,VWS V14.01,2013-10-20 12:57:00,
2013-10-20 09:02:00,40.6,0.0,30.03,SE,135,0.0,0.0,0,0.00,,---,0.00,VWS V14.01,2013-10-20 13:02:00,
2013-10-20 09:07:00,41.1,0.0,30.03,SE,136,0.0,0.0,0,0.00,,---,0.00,VWS V14.01,2013-10-20 13:07:00,
2013-10-20 09:12:00,41.6,0.0,30.04,SE,142,0.0,0.0,0,0.00,,---,0.00,VWS V14.01,2013-10-20 13:12:00,
2013-10-20 09:17:00,42.2,-52.0,30.04,SE,143,0.0,0.0,1,0.00,,---,0.00,VWS V14.01,2013-10-20 13:17:00,
2013-10-20 09:22:00,42.7,-3.2,30.04,SE,139,1.0,2.0,14,0.00,,---,0.00,VWS V14.01,2013-10-20 13:22:00,
2013-10-20 09:27:00,43.5,7.2,30.04,SE,138,1.0,2.0,22,0.00,,---,0.00,VWS V14.01,2013-10-20 13:27:00,
2013-10-20 09:32:00,44.1,13.1,30.04,SE,138,1.0,1.0,28,0.00,,---,0.00,VWS V14.01,2013-10-20 13:32:00,
2013-10-20 09:37:00,44.9,20.2,30.05,SE,136,1.0,2.0,37,0.00,,---,0.00,VWS V14.01,2013-10-20 13:37:00,
2013-10-20 09:42:00,45.3,27.8,30.05,SE,126,1.0,2.0,50,0.00,,---,0.00,VWS V14.01,2013-10-20 13:42:00,
2013-10-20 09:47:00,45.9,30.2,30.05,ESE,120,1.0,2.0,54,0.00,,---,0.00,VWS V14.01,2013-10-20 13:47:00,
2013-10-20 09:52:00,46.5,31.7,30.05,SE,136,1.0,2.0,56,0.00,,---,0.00,VWS V14.01,2013-10-20 13:52:00,
2013-10-20 09:57:00,47.2,33.6,30.05,ESE,119,1.0,2.0,59,0.00,,---,0.00,VWS V14.01,2013-10-20 13:57:00,
2013-10-20 10:02:00,47.7,35.3,30.05,ESE,123,1.0,3.0,62,0.00,,---,0.00,VWS V14.01,2013-10-20 14:02:00,
2013-10-20 10:07:00,48.2,35.8,30.05,SE,135,1.0,3.0,62,0.00,,---,0.00,VWS V14.01,2013-10-20 14:07:00,
2013-10-20 10:12:00,48.7,36.3,30.05,SSE,153,0.0,3.0,62,0.00,,---,0.00,VWS V14.01,2013-10-20 14:12:00,
2013-10-20 10:17:00,49.2,36.8,30.05,SE,146,2.0,4.0,62,0.00,,---,0.00,VWS V14.01,2013-10-20 14:17:00,
2013-10-20 10:22:00,49.7,36.4,30.05,WNW,297,1.0,4.0,60,0.00,,---,0.00,VWS V14.01,2013-10-20 14:22:00,
2013-10-20 10:27:00,50.1,36.3,30.05,NW,307,0.0,4.0,59,0.00,,---,0.00,VWS V14.01,2013-10-20 14:27:00,
2013-10-20 10:32:00,50.6,37.2,30.05,SE,129,2.0,2.0,60,0.00,,---,0.00,VWS V14.01,2013-10-20 14:32:00,
2013-10-20 10:37:00,51.1,37.3,30.06,ESE,110,1.0,2.0,59,0.00,,---,0.00,VWS V14.01,2013-10-20 14:37:00,
2013-10-20 10:42:00,51.5,37.2,30.06,SE,127,0.0,3.0,58,0.00,,---,0.00,VWS V14.01,2013-10-20 14:42:00,
2013-10-20 10:47:00,51.2,37.0,30.05,SSE,153,3.0,4.0,58,0.00,,---,0.00,VWS V14.01,2013-10-20 14:47:00,
2013-10-20 10:52:00,51.0,37.2,30.06,SSE,160,3.0,5.0,59,0.00,,---,0.00,VWS V14.01,2013-10-20 14:52:00,
2013-10-20 10:57:00,51.2,37.0,30.06,ESE,113,1.0,5.0,58,0.00,,---,0.00,VWS V14.01,2013-10-20 14:57:00,
2013-10-20 11:02:00,51.3,36.6,30.06,ESE,118,2.0,3.0,57,0.00,,---,0.00,VWS V14.01,2013-10-20 15:02:00,
2013-10-20 11:07:00,51.0,36.8,30.06,ENE,65,0.0,5.0,58,0.00,,---,0.00,VWS V14.01,2013-10-20 15:07:00,
2013-10-20 11:12:00,51.4,37.6,30.06,South,186,2.0,5.0,59,0.00,,---,0.00,VWS V14.01,2013-10-20 15:12:00,
2013-10-20 11:17:00,52.1,37.3,30.06,SE,128,0.0,5.0,57,0.00,,---,0.00,VWS V14.01,2013-10-20 15:17:00,
2013-10-20 11:22:00,52.4,38.1,30.06,SSE,151,1.0,5.0,58,0.00,,---,0.00,VWS V14.01,2013-10-20 15:22:00,
2013-10-20 11:27:00,52.8,38.0,30.06,WSW,248,0.0,5.0,57,0.00,,---,0.00,VWS V14.01,2013-10-20 15:27:00,
2013-10-20 11:32:00,53.3,38.5,30.06,SE,135,1.0,3.0,57,0.00,,---,0.00,VWS V14.01,2013-10-20 15:32:00,
2013-10-20 11:37:00,53.4,38.1,30.06,SE,132,4.0,4.0,56,0.00,,---,0.00,VWS V14.01,2013-10-20 15:37:00,
2013-10-20 11:42:00,53.7,38.4,30.06,WNW,294,1.0,4.0,56,0.00,,---,0.00,VWS V14.01,2013-10-20 15:42:00,
2013-10-20 11:47:00,53.7,37.9,30.06,ESE,104,1.0,5.0,55,0.00,,---,0.00,VWS V14.01,2013-10-20 15:47:00,
2013-10-20 11:52:00,53.6,37.8,30.06,WSW,248,1.0,7.0,55,0.00,,---,0.00,VWS V14.01,2013-10-20 15:52:00,
2013-10-20 11:57:00,53.9,38.1,30.06,WNW,293,1.0,7.0,55,0.00,,---,0.00,VWS V14.01,2013-10-20 15:57:00,
2013-10-20 12:02:00,54.3,37.5,30.06,ESE,113,3.0,3.0,53,0.00,,---,0.00,VWS V14.01,2013-10-20 16:02:00,
2013-10-20 12:07:00,54.4,38.6,30.06,NE,53,2.0,3.0,55,0.00,,---,0.00,VWS V14.01,2013-10-20 16:07:00,
2013-10-20 12:12:00,54.5,38.2,30.06,SW,214,0.0,4.0,54,0.00,,---,0.00,VWS V14.01,2013-10-20 16:12:00,
2013-10-20 12:17:00,55.2,38.9,30.06,West,280,0.0,4.0,54,0.00,,---,0.00,VWS V14.01,2013-10-20 16:17:00,
2013-10-20 12:22:00,55.5,39.1,30.06,ESE,104,1.0,5.0,54,0.00,,---,0.00,VWS V14.01,2013-10-20 16:22:00,
2013-10-20 12:27:00,55.9,40.0,30.06,NE,46,2.0,5.0,55,0.00,,---,0.00,VWS V14.01,2013-10-20 16:27:00,
2013-10-20 12:32:00,56.0,38.2,30.06,WNW,290,1.0,1.0,51,0.00,,---,0.00,VWS V14.01,2013-10-20 16:32:00,
2013-10-20 12:36:00,55.6,38.3,30.06,SE,141,2.0,6.0,52,0.00,,---,0.00,VWS V14.01,2013-10-20 16:36:00,
2013-10-20 12:41:00,55.8,38.0,30.06,South,183,0.0,6.0,51,0.00,,---,0.00,VWS V14.01,2013-10-20 16:41:00,
2013-10-20 12:46:00,55.9,38.5,30.05,WSW,245,0.0,6.0,52,0.00,,---,0.00,VWS V14.01,2013-10-20 16:46:00,
2013-10-20 12:51:00,56.8,40.8,30.05,ENE,71,2.0,6.0,55,0.00,,---,0.00,VWS V14.01,2013-10-20 16:51:00,
2013-10-20 12:56:00,56.8,38.4,30.05,ESE,108,1.0,6.0,50,0.00,,---,0.00,VWS V14.01,2013-10-20 16:56:00,
2013-10-20 13:01:00,57.0,39.1,30.05,SE,141,0.0,6.0,51,0.00,,---,0.00,VWS V14.01,2013-10-20 17:01:00,
2013-10-20 13:06:00,57.1,39.2,30.05,SE,139,0.0,4.0,51,0.00,,---,0.00,VWS V14.01,2013-10-20 17:06:00,
2013-10-20 13:11:00,57.3,38.8,30.04,SE,131,0.0,4.0,50,0.00,,---,0.00,VWS V14.01,2013-10-20 17:11:00,
2013-10-20 13:16:00,57.4,39.4,30.04,SSE,156,1.0,4.0,51,0.00,,---,0.00,VWS V14.01,2013-10-20 17:16:00,
2013-10-20 13:21:00,57.8,40.3,30.04,SSE,151,0.0,4.0,52,0.00,,---,0.00,VWS V14.01,2013-10-20 17:21:00,
2013-10-20 13:26:00,57.8,39.8,30.04,SW,227,2.0,6.0,51,0.00,,---,0.00,VWS V14.01,2013-10-20 17:26:00,
2013-10-20 13:31:00,57.7,39.7,30.04,SW,226,0.0,6.0,51,0.00,,---,0.00,VWS V14.01,2013-10-20 17:31:00,
2013-10-20 13:36:00,58.1,39.6,30.03,WNW,297,0.0,3.0,50,0.00,,---,0.00,VWS V14.01,2013-10-20 17:36:00,
2013-10-20 13:41:00,58.4,39.3,30.03,SE,124,0.0,3.0,49,0.00,,---,0.00,VWS V14.01,2013-10-20 17:41:00,
2013-10-20 13:46:00,58.8,39.7,30.03,SE,138,1.0,4.0,49,0.00,,---,0.00,VWS V14.01,2013-10-20 17:46:00,
2013-10-20 13:51:00,59.2,40.1,30.02,SSW,203,0.0,4.0,49,0.00,,---,0.00,VWS V14.01,2013-10-20 17:51:00,
2013-10-20 13:56:00,59.4,39.2,30.02,NE,51,0.0,4.0,47,0.00,,---,0.00,VWS V14.01,2013-10-20 17:56:00,
2013-10-20 14:01:00,59.1,40.0,30.02,NE,37,0.0,4.0,49,0.00,,---,0.00,VWS V14.01,2013-10-20 18:01:00,
2013-10-20 14:06:00,59.4,40.2,30.02,SW,232,1.0,3.0,49,0.00,,---,0.00,VWS V14.01,2013-10-20 18:06:00,
2013-10-20 14:11:00,59.7,40.5,30.02,East,93,5.0,5.0,49,0.00,,---,0.00,VWS V14.01,2013-10-20 18:11:00,
2013-10-20 14:16:00,59.5,38.7,30.02,ESE,116,4.0,5.0,46,0.00,,---,0.00,VWS V14.01,2013-10-20 18:16:00,
2013-10-20 14:21:00,59.4,40.2,30.01,ESE,110,2.0,5.0,49,0.00,,---,0.00,VWS V14.01,2013-10-20 18:21:00,
2013-10-20 14:26:00,59.6,38.8,30.01,NNE,30,0.0,5.0,46,0.00,,---,0.00,VWS V14.01,2013-10-20 18:26:00,
2013-10-20 14:31:00,59.7,39.5,30.02,NE,45,2.0,5.0,47,0.00,,---,0.00,VWS V14.01,2013-10-20 18:31:00,
2013-10-20 14:36:00,59.7,38.9,30.01,ENE,69,4.0,5.0,46,0.00,,---,0.00,VWS V14.01,2013-10-20 18:36:00,
2013-10-20 14:41:00,59.3,38.5,30.01,NE,46,2.0,5.0,46,0.00,,---,0.00,VWS V14.01,2013-10-20 18:41:00,
2013-10-20 14:46:00,59.5,39.3,30.01,ESE,111,1.0,5.0,47,0.00,,---,0.00,VWS V14.01,2013-10-20 18:46:00,
2013-10-20 14:51:00,59.9,40.2,30.01,WNW,288,2.0,5.0,48,0.00,,---,0.00,VWS V14.01,2013-10-20 18:51:00,
2013-10-20 14:56:00,60.2,39.9,30.01,WNW,293,0.0,5.0,47,0.00,,---,0.00,VWS V14.01,2013-10-20 18:56:00,
2013-10-20 15:01:00,60.5,39.6,30.01,WNW,293,0.0,5.0,46,0.00,,---,0.00,VWS V14.01,2013-10-20 19:01:00,
2013-10-20 15:06:00,60.6,39.7,30.01,ENE,59,0.0,4.0,46,0.00,,---,0.00,VWS V14.01,2013-10-20 19:06:00,
2013-10-20 15:11:00,60.9,38.9,30.01,WSW,245,0.0,4.0,44,0.00,,---,0.00,VWS V14.01,2013-10-20 19:11:00,
2013-10-20 15:16:00,61.0,38.4,30.01,SE,127,1.0,5.0,43,0.00,,---,0.00,VWS V14.01,2013-10-20 19:16:00,
2013-10-20 15:21:00,60.4,38.4,30.01,ESE,115,2.0,5.0,44,0.00,,---,0.00,VWS V14.01,2013-10-20 19:21:00,
2013-10-20 15:26:00,60.5,39.1,30.01,ESE,110,1.0,5.0,45,0.00,,---,0.00,VWS V14.01,2013-10-20 19:26:00,
2013-10-20 15:31:00,60.9,41.1,30.01,SE,128,0.0,5.0,48,0.00,,---,0.00,VWS V14.01,2013-10-20 19:31:00,
2013-10-20 15:36:00,61.3,39.2,30.01,ENE,75,2.0,2.0,44,0.00,,---,0.00,VWS V14.01,2013-10-20 19:36:00,
2013-10-20 15:41:00,61.4,38.7,30.00,NNW,333,0.0,4.0,43,0.00,,---,0.00,VWS V14.01,2013-10-20 19:41:00,
2013-10-20 15:46:00,61.9,39.8,30.00,NW,323,0.0,4.0,44,0.00,,---,0.00,VWS V14.01,2013-10-20 19:46:00,
2013-10-20 15:51:00,62.4,40.2,30.00,ESE,108,0.0,4.0,44,0.00,,---,0.00,VWS V14.01,2013-10-20 19:51:00,
2013-10-20 15:56:00,62.5,38.5,30.00,SW,217,0.0,4.0,41,0.00,,---,0.00,VWS V14.01,2013-10-20 19:56:00,
2013-10-20 16:01:00,62.7,38.7,30.00,West,274,0.0,4.0,41,0.00,,---,0.00,VWS V14.01,2013-10-20 20:01:00,
2013-10-20 16:06:00,62.3,38.9,30.00,North,359,0.0,3.0,42,0.00,,---,0.00,VWS V14.01,2013-10-20 20:06:00,
2013-10-20 16:11:00,62.3,39.5,30.00,WNW,290,0.0,3.0,43,0.00,,---,0.00,VWS V14.01,2013-10-20 20:11:00,
2013-10-20 16:16:00,62.5,39.1,30.01,NNW,347,0.0,3.0,42,0.00,,---,0.00,VWS V14.01,2013-10-20 20:16:00,
2013-10-20 16:21:00,62.2,38.2,30.01,SW,233,0.0,3.0,41,0.00,,---,0.00,VWS V14.01,2013-10-20 20:21:00,
2013-10-20 16:26:00,61.7,39.0,30.00,SE,139,0.0,3.0,43,0.00,,---,0.00,VWS V14.01,2013-10-20 20:26:00,
2013-10-20 16:31:00,61.1,37.9,30.00,ESE,117,0.0,3.0,42,0.00,,---,0.00,VWS V14.01,2013-10-20 20:31:00,
2013-10-20 16:36:00,60.4,38.4,30.00,NNW,338,0.0,1.0,44,0.00,,---,0.00,VWS V14.01,2013-10-20 20:36:00,
2013-10-20 16:41:00,59.8,38.4,30.01,ESE,113,0.0,1.0,45,0.00,,---,0.00,VWS V14.01,2013-10-20 20:41:00,
2013-10-20 16:46:00,58.9,37.6,30.00,West,280,0.0,2.0,45,0.00,,---,0.00,VWS V14.01,2013-10-20 20:46:00,
2013-10-20 16:51:00,58.2,37.5,30.00,East,95,1.0,2.0,46,0.00,,---,0.00,VWS V14.01,2013-10-20 20:51:00,
2013-10-20 16:56:00,57.5,37.5,30.00,NNW,336,0.0,2.0,47,0.00,,---,0.00,VWS V14.01,2013-10-20 20:56:00,
2013-10-20 17:01:00,57.0,38.0,30.00,SE,131,0.0,2.0,49,0.00,,---,0.00,VWS V14.01,2013-10-20 21:01:00,
2013-10-20 17:06:00,56.6,37.7,30.01,SE,131,0.0,0.0,49,0.00,,---,0.00,VWS V14.01,2013-10-20 21:06:00,
2013-10-20 17:11:00,56.3,37.9,30.01,South,181,0.0,0.0,50,0.00,,---,0.00,VWS V14.01,2013-10-20 21:11:00,
2013-10-20 17:16:00,56.0,38.2,30.01,NNW,336,0.0,0.0,51,0.00,,---,0.00,VWS V14.01,2013-10-20 21:16:00,
2013-10-20 17:21:00,55.8,38.0,30.01,NNW,346,0.0,1.0,51,0.00,,---,0.00,VWS V14.01,2013-10-20 21:21:00,
2013-10-20 17:26:00,55.5,38.2,30.01,NNW,345,0.0,1.0,52,0.00,,---,0.00,VWS V14.01,2013-10-20 21:26:00,
2013-10-20 17:31:00,55.2,38.4,30.01,NNW,345,0.0,0.0,53,0.00,,---,0.00,VWS V14.01,2013-10-20 21:31:00,
2013-10-20 17:36:00,54.9,38.6,30.01,NNW,345,0.0,1.0,54,0.00,,---,0.00,VWS V14.01,2013-10-20 21:36:00,
2013-10-20 17:41:00,54.7,38.9,30.01,NW,323,0.0,1.0,55,0.00,,---,0.00,VWS V14.01,2013-10-20 21:41:00,
2013-10-20 17:46:00,54.3,39.0,30.01,NW,323,0.0,1.0,56,0.00,,---,0.00,VWS V14.01,2013-10-20 21:46:00,
2013-10-20 17:51:00,53.9,39.0,30.01,NW,323,0.0,1.0,57,0.00,,---,0.00,VWS V14.01,2013-10-20 21:51:00,
2013-10-20 17:56:00,53.4,39.0,30.02,NW,323,0.0,1.0,58,0.00,,---,0.00,VWS V14.01,2013-10-20 21:56:00,
2013-10-20 18:01:00,52.9,39.0,30.02,NW,323,0.0,0.0,59,0.00,,---,0.00,VWS V14.01,2013-10-20 22:01:00,
2013-10-20 18:06:00,52.4,38.9,30.01,NW,323,0.0,0.0,60,0.00,,---,0.00,VWS V14.01,2013-10-20 22:06:00,
2013-10-20 18:11:00,51.9,38.5,30.01,NW,323,0.0,0.0,60,0.00,,---,0.00,VWS V14.01,2013-10-20 22:11:00,
2013-10-20 18:16:00,51.2,38.2,30.02,NW,323,0.0,0.0,61,0.00,,---,0.00,VWS V14.01,2013-10-20 22:16:00,
2013-10-20 18:21:00,50.5,37.6,30.02,NW,323,0.0,0.0,61,0.00,,---,0.00,VWS V14.01,2013-10-20 22:21:00,
2013-10-20 18:26:00,49.9,37.0,30.02,NW,323,0.0,0.0,61,0.00,,---,0.00,VWS V14.01,2013-10-20 22:26:00,
2013-10-20 18:31:00,49.1,36.7,30.02,NW,323,0.0,0.0,62,0.00,,---,0.00,VWS V14.01,2013-10-20 22:31:00,
2013-10-20 18:36:00,48.4,36.0,30.02,NW,323,0.0,0.0,62,0.00,,---,0.00,VWS V14.01,2013-10-20 22:36:00,
2013-10-20 18:41:00,47.7,34.9,30.03,NW,323,0.0,0.0,61,0.00,,---,0.00,VWS V14.01,2013-10-20 22:41:00,
2013-10-20 18:46:00,47.1,33.9,30.03,NNW,335,0.0,0.0,60,0.00,,---,0.00,VWS V14.01,2013-10-20 22:46:00,
2013-10-20 18:51:00,46.6,33.0,30.03,NNW,335,0.0,0.0,59,0.00,,---,0.00,VWS V14.01,2013-10-20 22:51:00,
2013-10-20 18:56:00,46.1,32.2,30.03,NNW,335,0.0,0.0,58,0.00,,---,0.00,VWS V14.01,2013-10-20 22:56:00,
2013-10-20 19:01:00,45.6,30.8,30.03,NNW,336,0.0,0.0,56,0.00,,---,0.00,VWS V14.01,2013-10-20 23:01:00,
2013-10-20 19:06:00,45.1,29.5,30.03,NNW,335,0.0,0.0,54,0.00,,---,0.00,VWS V14.01,2013-10-20 23:06:00,
2013-10-20 19:11:00,44.8,28.3,30.03,NNW,336,0.0,0.0,52,0.00,,---,0.00,VWS V14.01,2013-10-20 23:11:00,
2013-10-20 19:16:00,44.3,26.9,30.03,NNW,336,0.0,0.0,50,0.00,,---,0.00,VWS V14.01,2013-10-20 23:16:00,
2013-10-20 19:21:00,44.0,25.1,30.04,NNW,336,0.0,0.0,47,0.00,,---,0.00,VWS V14.01,2013-10-20 23:21:00,
2013-10-20 19:26:00,43.7,23.8,30.04,NNW,335,0.0,0.0,45,0.00,,---,0.00,VWS V14.01,2013-10-20 23:26:00,
2013-10-20 19:31:00,43.3,22.9,30.04,NNW,336,0.0,0.0,44,0.00,,---,0.00,VWS V14.01,2013-10-20 23:31:00,
2013-10-20 19:36:00,43.1,20.4,30.04,NNW,336,0.0,0.0,40,0.00,,---,0.00,VWS V14.01,2013-10-20 23:36:00,
2013-10-20 19:41:00,43.0,17.2,30.04,NNW,335,0.0,0.0,35,0.00,,---,0.00,VWS V14.01,2013-10-20 23:41:00,
2013-10-20 19:47:00,42.9,15.1,30.05,NNW,336,0.0,0.0,32,0.00,,---,0.00,VWS V14.01,2013-10-20 23:47:00,
2013-10-20 19:52:00,42.7,14.9,30.05,NNW,336,0.0,0.0,32,0.00,,---,0.00,VWS V14.01,2013-10-20 23:52:00,
2013-10-20 19:57:00,42.6,12.6,30.05,NNW,334,0.0,0.0,29,0.00,,---,0.00,VWS V14.01,2013-10-20 23:57:00,
2013-10-20 20:02:00,42.5,10.1,30.05,WNW,293,0.0,0.0,26,0.00,,---,0.00,VWS V14.01,2013-10-21 00:02:00,
2013-10-20 20:07:00,42.5,9.2,30.06,WNW,294,0.0,1.0,25,0.00,,---,0.00,VWS V14.01,2013-10-21 00:07:00,
2013-10-20 20:12:00,42.5,7.3,30.06,WNW,294,0.0,1.0,23,0.00,,---,0.00,VWS V14.01,2013-10-21 00:12:00,
2013-10-20 20:17:00,42.6,6.4,30.06,West,264,1.0,1.0,22,0.00,,---,0.00,VWS V14.01,2013-10-21 00:17:00,
2013-10-20 20:22:00,42.6,4.3,30.06,WSW,246,0.0,2.0,20,0.00,,---,0.00,VWS V14.01,2013-10-21 00:22:00,
2013-10-20 20:27:00,42.7,5.5,30.06,West,263,0.0,2.0,21,0.00,,---,0.00,VWS V14.01,2013-10-21 00:27:00,
2013-10-20 20:32:00,42.7,5.5,30.06,WSW,249,0.0,1.0,21,0.00,,---,0.00,VWS V14.01,2013-10-21 00:32:00,
2013-10-20 20:37:00,42.7,6.5,30.06,WSW,242,0.0,1.0,22,0.00,,---,0.00,VWS V14.01,2013-10-21 00:37:00,
2013-10-20 20:42:00,42.7,8.4,30.06,WSW,248,1.0,2.0,24,0.00,,---,0.00,VWS V14.01,2013-10-21 00:42:00,
2013-10-20 20:47:00,42.6,7.4,30.07,SW,235,1.0,2.0,23,0.00,,---,0.00,VWS V14.01,2013-10-21 00:47:00,
2013-10-20 20:52:00,42.6,7.4,30.07,WSW,248,1.0,2.0,23,0.00,,---,0.00,VWS V14.01,2013-10-21 00:52:00,
2013-10-20 20:57:00,42.6,9.3,30.07,SW,233,0.0,2.0,25,0.00,,---,0.00,VWS V14.01,2013-10-21 00:57:00,
2013-10-20 21:02:00,42.5,10.1,30.07,SW,236,0.0,0.0,26,0.00,,---,0.00,VWS V14.01,2013-10-21 01:02:00,
2013-10-20 21:07:00,42.4,10.0,30.07,WSW,245,0.0,1.0,26,0.00,,---,0.00,VWS V14.01,2013-10-21 01:07:00,
2013-10-20 21:12:00,42.3,9.9,30.07,WSW,249,1.0,1.0,26,0.00,,---,0.00,VWS V14.01,2013-10-21 01:12:00,
2013-10-20 21:17:00,42.1,9.7,30.07,WSW,251,0.0,1.0,26,0.00,,---,0.00,VWS V14.01,2013-10-21 01:17:00,
2013-10-20 21:22:00,41.9,9.5,30.07,WSW,252,0.0,1.0,26,0.00,,---,0.00,VWS V14.01,2013-10-21 01:22:00,
2013-10-20 21:27:00,41.7,6.7,30.07,WSW,251,0.0,1.0,23,0.00,,---,0.00,VWS V14.01,2013-10-21 01:27:00,
2013-10-20 21:32:00,41.6,3.5,30.08,WSW,243,0.0,1.0,20,0.00,,---,0.00,VWS V14.01,2013-10-21 01:32:00,
2013-10-20 21:37:00,41.5,2.3,30.08,WSW,254,0.0,1.0,19,0.00,,---,0.00,VWS V14.01,2013-10-21 01:37:00,
2013-10-20 21:42:00,41.4,2.2,30.08,WSW,242,1.0,1.0,19,0.00,,---,0.00,VWS V14.01,2013-10-21 01:42:00,
2013-10-20 21:47:00,41.3,1.0,30.08,WSW,253,0.0,1.0,18,0.00,,---,0.00,VWS V14.01,2013-10-21 01:47:00,
2013-10-20 21:52:00,41.2,0.9,30.08,West,262,1.0,2.0,18,0.00,,---,0.00,VWS V14.01,2013-10-21 01:52:00,
2013-10-20 21:57:00,41.2,-0.3,30.08,WSW,238,0.0,2.0,17,0.00,,---,0.00,VWS V14.01,2013-10-21 01:57:00,
2013-10-20 22:02:00,41.1,2.0,30.08,WSW,250,0.0,0.0,19,0.00,,---,0.00,VWS V14.01,2013-10-21 02:02:00,
2013-10-20 22:07:00,41.1,-0.4,30.08,WNW,288,1.0,1.0,17,0.00,,---,0.00,VWS V14.01,2013-10-21 02:07:00,
2013-10-20 22:12:00,41.0,0.8,30.08,West,262,0.0,1.0,18,0.00,,---,0.00,VWS V14.01,2013-10-21 02:12:00,
2013-10-20 22:17:00,40.9,0.7,30.08,WNW,290,0.0,1.0,18,0.00,,---,0.00,VWS V14.01,2013-10-21 02:17:00,
2013-10-20 22:22:00,40.8,2.8,30.08,WNW,290,0.0,1.0,20,0.00,,---,0.00,VWS V14.01,2013-10-21 02:22:00,
2013-10-20 22:27:00,40.5,3.7,30.09,WNW,291,0.0,1.0,21,0.00,,---,0.00,VWS V14.01,2013-10-21 02:27:00,
2013-10-20 22:32:00,40.3,2.4,30.09,WNW,290,0.0,0.0,20,0.00,,---,0.00,VWS V14.01,2013-10-21 02:32:00,
2013-10-20 22:37:00,40.0,-0.1,30.09,WNW,291,0.0,0.0,18,0.00,,---,0.00,VWS V14.01,2013-10-21 02:37:00,
2013-10-20 22:42:00,39.8,-2.7,30.09,ESE,104,0.0,0.0,16,0.00,,---,0.00,VWS V14.01,2013-10-21 02:42:00,
2013-10-20 22:47:00,39.6,-8.8,30.09,WSW,238,0.0,1.0,12,0.00,,---,0.00,VWS V14.01,2013-10-21 02:47:00,
2013-10-20 22:52:00,39.6,-16.9,30.09,WSW,245,1.0,1.0,8,0.00,,---,0.00,VWS V14.01,2013-10-21 02:52:00,
2013-10-20 22:57:00,39.7,-22.4,30.08,WSW,246,0.0,1.0,6,0.00,,---,0.00,VWS V14.01,2013-10-21 02:57:00,
2013-10-20 23:02:00,39.6,-19.5,30.08,WSW,250,0.0,0.0,7,0.00,,---,0.00,VWS V14.01,2013-10-21 03:02:00,
2013-10-20 23:07:00,39.5,-19.6,30.09,SW,233,0.0,1.0,7,0.00,,---,0.00,VWS V14.01,2013-10-21 03:07:00,
2013-10-20 23:12:00,39.4,-22.6,30.09,WSW,239,0.0,1.0,6,0.00,,---,0.00,VWS V14.01,2013-10-21 03:12:00,
2013-10-20 23:17:00,39.3,-26.1,30.09,WSW,239,0.0,1.0,5,0.00,,---,0.00,VWS V14.01,2013-10-21 03:17:00,
2013-10-20 23:22:00,39.3,0.0,30.09,SW,233,0.0,2.0,0,0.00,,---,0.00,VWS V14.01,2013-10-21 03:22:00,
2013-10-20 23:27:00,39.3,0.0,30.09,WSW,255,1.0,2.0,0,0.00,,---,0.00,VWS V14.01,2013-10-21 03:27:00,
2013-10-20 23:32:00,39.3,0.0,30.09,West,260,0.0,0.0,0,0.00,,---,0.00,VWS V14.01,2013-10-21 03:32:00,
2013-10-20 23:37:00,39.3,0.0,30.09,SW,226,0.0,2.0,0,0.00,,---,0.00,VWS V14.01,2013-10-21 03:37:00,
2013-10-20 23:42:00,39.2,0.0,30.09,WSW,240,0.0,2.0,0,0.00,,---,0.00,VWS V14.01,2013-10-21 03:42:00,
2013-10-20 23:47:00,39.3,0.0,30.10,WSW,238,0.0,2.0,0,0.00,,---,0.00,VWS V14.01,2013-10-21 03:47:00,
2013-10-20 23:52:00,39.2,0.0,30.10,SW,221,0.0,2.0,0,0.00,,---,0.00,VWS V14.01,2013-10-21 03:52:00,
2013-10-20 23:57:00,39.1,0.0,30.10,West,273,1.0,2.0,0,0.00,,---,0.00,VWS V14.01,2013-10-21 03:57:00,